Weather History for KFSD - January, 2011

Change the Weather History Date:

Tuesday, January 4, 2011

  Actual Average Record
Temperature  
Mean Temperature 7 °F 16 °F  
Max Temperature 18 °F 26 °F 54 °F (1916)
Min Temperature -4 °F 7 °F -26 °F (1942)
Degree Days  
Heating Degree Days 58 49  
Month to date heating degree days 175 196  
Since 1 July heating degree days 3166 3329  
Cooling Degree Days 0 0  
Month to date cooling degree days 0 0  
Year to date cooling degree days 0 0  
Moisture  
Dew Point 3 °F    
Average Humidity 79    
Maximum Humidity 91    
Minimum Humidity 67    
Precipitation  
Precipitation 0.00 in 0.02 in 0.60 in (1897)
Month to date precipitation T 0.08  
Year to date precipitation T 0.08  
Snow  
Snow 0.00 in 0.30 in 6.00 in (1897)
Month to date snowfall T 1.0  
Since 1 July snowfall 19.0 17.9  
Snow Depth 5.00 in    
Sea Level Pressure  
Sea Level Pressure 30.08 in    
Wind  
Wind Speed 4 mph (SW)    
Max Wind Speed 9 mph    
Max Gust Speed 13 mph    
Visibility 10 miles    
Events      
T = Trace of Precipitation, MM = Missing Value Source: NWS Daily Summary

Daily Weather History Graph

Daily Weather History Graph

Search for Another Location

Airport or City:

Trip Planner

Search our weather history database for the weather conditions in past years. The results will help you decide how hot, cold, wet, or windy it might be!

Date:

Astronomy

Jan. 04, 2011 Rise Set
Actual Time 8:00 AM CST 5:03 PM CST
Civil Twilight 7:27 AM CST 5:36 PM CST
Nautical Twilight 6:51 AM CST 6:12 PM CST
Astronomical Twilight 6:17 AM CST 6:46 PM CST
Moon 8:09 AM CST (1/4) 5:39 PM CST (1/4)
Length of Visible Light 10h 08m
Length of Day
9h 03m
New Moon, 0% of the Moon is Illuminated
Jan 4
New Moon
Jan 12
First Quarter
Jan 19
Full
Jan 26
Last Quarter
Feb 2
New

Hourly Weather History & Observations

Time (CST) Temp. Windchill Dew Point Humidity Pressure Visibility Wind Dir Wind Speed Gust Speed Precip Events Conditions
12:56 AM -0.0 °F -13.0 °F -5.1 °F 79% 30.15 in 10.0 mi West 6.9 mph - N/A   Clear
1:56 AM -0.0 °F -9.9 °F -5.1 °F 79% 30.15 in 10.0 mi West 4.6 mph - N/A   Clear
2:56 AM -0.0 °F - -5.1 °F 79% 30.15 in 10.0 mi Calm Calm - N/A   Clear
3:56 AM -2.9 °F - -6.0 °F 87% 30.14 in 10.0 mi Calm Calm - N/A   Clear
4:56 AM -2.9 °F - -7.1 °F 82% 30.13 in 10.0 mi Calm Calm - N/A   Clear
5:56 AM -0.0 °F -7.9 °F -5.1 °F 79% 30.13 in 10.0 mi SSW 3.5 mph - N/A   Clear
6:56 AM 1.0 °F - -2.9 °F 83% 30.12 in 10.0 mi Calm Calm - N/A   Clear
7:56 AM 1.0 °F -8.7 °F -2.9 °F 83% 30.12 in 10.0 mi WSW 4.6 mph - N/A   Clear
8:36 AM 1.4 °F -9.9 °F -2.2 °F 85% 30.01 in 10.0 mi WSW 5.8 mph - N/A   Clear
8:56 AM 1.9 °F -7.6 °F -0.9 °F 88% 30.12 in 10.0 mi WSW 4.6 mph - N/A   Clear
9:56 AM 6.1 °F -0.9 °F 1.0 °F 80% 30.11 in 10.0 mi West 3.5 mph - N/A   Partly Cloudy
10:56 AM 10.0 °F -1.9 °F 3.9 °F 76% 30.12 in 10.0 mi WSW 8.1 mph - N/A   Clear
11:56 AM 12.0 °F 0.5 °F 5.0 °F 73% 30.10 in 10.0 mi WSW 8.1 mph - N/A   Clear
12:56 PM 15.1 °F 6.4 °F 7.0 °F 70% 30.08 in 10.0 mi West 5.8 mph - N/A   Clear
1:56 PM 16.0 °F 8.8 °F 9.0 °F 74% 30.06 in 10.0 mi WSW 4.6 mph - N/A   Clear
2:56 PM 18.0 °F 12.7 °F 9.0 °F 68% 30.06 in 10.0 mi Variable 3.5 mph - N/A   Clear
3:56 PM 18.0 °F 11.1 °F 10.0 °F 71% 30.06 in 10.0 mi SW 4.6 mph - N/A   Clear
4:56 PM 16.0 °F 8.8 °F 10.0 °F 77% 30.05 in 10.0 mi SSW 4.6 mph - N/A   Clear
5:56 PM 12.9 °F 5.2 °F 9.0 °F 84% 30.05 in 10.0 mi South 4.6 mph - N/A   Clear
6:56 PM 14.0 °F 6.5 °F 10.0 °F 84% 30.04 in 10.0 mi SSW 4.6 mph - N/A   Clear
7:56 PM 14.0 °F 8.2 °F 9.0 °F 80% 30.02 in 10.0 mi SSW 3.5 mph - N/A   Clear
8:56 PM 14.0 °F 6.5 °F 10.0 °F 84% 30.01 in 10.0 mi SSW 4.6 mph - N/A   Clear
9:56 PM 12.9 °F - 9.0 °F 84% 29.99 in 10.0 mi Calm Calm - N/A   Clear
10:56 PM 9.0 °F - 6.1 °F 88% 29.97 in 10.0 mi Calm Calm - N/A   Clear
11:56 PM 15.1 °F 9.4 °F 10.0 °F 80% 29.96 in 10.0 mi SW 3.5 mph - N/A   Clear